Weather History for Covington, KY

Change the Weather History Date:

Sunday, September 15, 2013

  Actual Average Record
Temperature  
Mean Temperature 63 °F 68 °F  
Max Temperature 78 °F 79 °F 97 °F (1939)
Min Temperature 48 °F 57 °F 41 °F (1964)
Degree Days  
Heating Degree Days 2 1  
Month to date heating degree days 10 9  
Since 1 July heating degree days 14 9  
Cooling Degree Days 0 4  
Month to date cooling degree days 113 94  
Year to date cooling degree days 1089 1062  
Growing Degree Days 13 (Base 50)    
Moisture  
Dew Point 52 °F    
Average Humidity 63    
Maximum Humidity 83    
Minimum Humidity 42    
Precipitation  
Precipitation 0.05 in 0.08 in 1.36 in (1956)
Month to date precipitation 0.16 1.32  
Year to date precipitation 33.21 31.11  
Snow  
Snow 0.00 in 0.00 in 0.00 in ()
Month to date snowfall 0.0 0.0  
Since 1 July snowfall 0.0 0.0  
Since 1 September snowfall 0.0 0.0  
Snow Depth 0.00 in    
Sea Level Pressure  
Sea Level Pressure 30.09 in    
Wind  
Wind Speed 5 mph (SSW)    
Max Wind Speed 16 mph    
Max Gust Speed 21 mph    
Visibility 10 miles    
Events      
T = Trace of Precipitation, MM = Missing Value Source: NWS Daily Summary

Daily Weather History Graph

Daily Weather History Graph

Search for Another Location

Airport:

Trip Planner

Search our weather history database for the weather conditions in past years. The results will help you decide how hot, cold, wet, or windy it might be!

Date:

Astronomy

Sep. 15, 2013 Rise Set
Actual Time 7:20 AM EDT 7:46 PM EDT
Civil Twilight 6:53 AM EDT 8:13 PM EDT
Nautical Twilight 6:21 AM EDT 8:44 PM EDT
Astronomical Twilight 5:49 AM EDT 9:16 PM EDT
Moon 5:12 PM EDT (9/15) 2:58 AM EDT (9/15)
Length of Visible Light 13h 19m
Length of Day
12h 26m
Waxing Gibbous, 82% of the Moon is Illuminated
Sep 15
Waxing Gibbous
Sep 19
Full
Sep 26
Last Quarter
Oct 4
New
Oct 11
First Quarter

Hourly Weather History & Observations

Time (EDT) Temp. Dew Point Humidity Pressure Visibility Wind Dir Wind Speed Gust Speed Precip Events Conditions
1:52 AM 55.0 °F 46.9 °F 74% 30.10 in 10.0 mi SSE 9.2 mph - N/A   Partly Cloudy
2:52 AM 54.0 °F 46.9 °F 77% 30.10 in 10.0 mi South 3.5 mph - N/A   Clear
3:52 AM 52.0 °F 46.0 °F 80% 30.11 in 10.0 mi South 5.8 mph - N/A   Clear
4:52 AM 53.1 °F 46.0 °F 77% 30.11 in 10.0 mi South 5.8 mph - N/A   Clear
5:52 AM 52.0 °F 46.0 °F 80% 30.12 in 10.0 mi South 3.5 mph - N/A   Scattered Clouds
6:52 AM 52.0 °F 46.0 °F 80% 30.12 in 10.0 mi Calm Calm - N/A   Scattered Clouds
7:52 AM 52.0 °F 46.9 °F 83% 30.13 in 10.0 mi Calm Calm - N/A   Mostly Cloudy
8:52 AM 55.0 °F 48.9 °F 80% 30.14 in 10.0 mi Calm Calm - N/A   Mostly Cloudy
9:52 AM 60.1 °F 51.1 °F 72% 30.14 in 10.0 mi Calm Calm - N/A   Mostly Cloudy
10:52 AM 64.9 °F 51.1 °F 61% 30.14 in 10.0 mi SSW 4.6 mph - N/A   Overcast
11:52 AM 69.1 °F 51.1 °F 53% 30.13 in 10.0 mi WSW 4.6 mph - N/A   Overcast
12:52 PM 70.0 °F 52.0 °F 53% 30.12 in 10.0 mi Calm Calm - N/A   Overcast
1:52 PM 73.0 °F 53.1 °F 49% 30.09 in 10.0 mi SW 8.1 mph - N/A   Mostly Cloudy
2:52 PM 75.0 °F 53.1 °F 46% 30.07 in 10.0 mi SSW 10.4 mph - N/A   Mostly Cloudy
3:52 PM 75.0 °F 52.0 °F 44% 30.06 in 10.0 mi WSW 12.7 mph 19.6 mph N/A   Scattered Clouds
4:52 PM 78.1 °F 54.0 °F 43% 30.04 in 10.0 mi SW 9.2 mph - N/A   Mostly Cloudy
5:52 PM 75.9 °F 53.1 °F 45% 30.03 in 10.0 mi SSW 10.4 mph - N/A   Mostly Cloudy
6:52 PM 73.0 °F 55.0 °F 53% 30.04 in 10.0 mi SW 5.8 mph - N/A   Mostly Cloudy
7:52 PM 72.0 °F 55.0 °F 55% 30.04 in 10.0 mi Calm Calm - N/A   Mostly Cloudy
8:52 PM 66.0 °F 59.0 °F 78% 30.05 in 10.0 mi South 5.8 mph - N/A   Mostly Cloudy
9:52 PM 70.0 °F 57.9 °F 65% 30.06 in 10.0 mi Calm Calm - N/A   Overcast
10:52 PM 66.9 °F 59.0 °F 76% 30.06 in 10.0 mi Calm Calm - N/A   Scattered Clouds
11:52 PM 66.0 °F 60.1 °F 81% 30.06 in 10.0 mi West 3.5 mph - N/A   Overcast